Location: Anna District 4 Election Precinct
(37.4833°N, 89.2195°W)
Time: 14:45:28
(UTC+00:00)

CZ-4 R/B - Pass Details

Date: 29 October 2020
Orbit: 532 x 598 km, 97.7° (Epoch: 03 December)

Event Time Altitude Azimuth Distance (km) Brightness Sun altitude
Rises 23:45:53 0° 136° (SE) 2,701 4.5 -9.4°
Reaches altitude 10° 23:48:21 10° 121° (ESE) 1,803 3.5 -9.9°
Maximum altitude 23:51:22 22° 70° (ENE) 1,210 2.5 -10.5°
Drops below altitude 10° 23:54:22 10° 19° (NNE) 1,796 3.7 -11.1°
Sets 23:56:49 0° 4° (N) 2,687 4.7 -11.6°
